Location: Kapla
(46.2483°N, 15.0094°E)
Time: 14:03:43
(UTC+00:00)

Cosmos 2333 - Pass Details

Date: 03 March 2021
Orbit: 829 x 866 km, 70.9° (Epoch: 19 April)

Event Time Altitude Azimuth Distance (km) Brightness Sun altitude
Rises 18:30:10 0° 194° (SSW) 3,370 7.4 -18.2°
Reaches altitude 10° 18:32:36 10° 191° (S) 2,445 6.6 -18.6°
Maximum altitude 18:38:08 63° 111° (ESE) 942 4.1 -19.6°
Drops below altitude 10° 18:43:45 10° 32° (NNE) 2,487 6.4 -20.5°
Sets 18:46:15 0° 30° (NNE) 3,432 7.2 -20.9°
